When you browse on this site, cookies collect data to enhance your experience and personalize the content and advertising you see.
Visit our Privacy Policy to learn more. By continuing to use the site, you agree to this use of cookies and data.
  • In Schweiz
  • Länderverzeichnis
  • Für 7 Tage
  • Wassertemperatur
  • Satellitenkarten
  • Wetterkarte
  • Widgets
  • user-avatar
    Anmelden

    Stündliche Wetter Ramadi

    Heute, 19 November, Montag

    Zeit Temperatur Niederschläge Wind Luftdruck Luftfeuchtigkeit
    00:00 +20°C° 0 mm 1 m/S 761 mmHg 58%
    01:00 +20°C° 0 mm 1 m/S 760 mmHg 58%
    02:00 +20°C° 0 mm 1 m/S 760 mmHg 58%
    03:00 +19°C° 0 mm 2 m/S 760 mmHg 57%
    04:00 +18°C° 0 mm 2 m/S 760 mmHg 58%
    05:00 +18°C° 0 mm 2 m/S 760 mmHg 58%
    06:00 +18°C° 0 mm 2 m/S 761 mmHg 59%
    07:00 +20°C° 0 mm 1 m/S 761 mmHg 56%
    08:00 +20°C° 0 mm 1 m/S 761 mmHg 53%
    09:00 +21°C° 0 mm 1 m/S 761 mmHg 51%
    10:00 +22°C° 0 mm 1 m/S 761 mmHg 48%
    11:00 +23°C° 0 mm 2 m/S 760 mmHg 46%
    12:00 +23°C° 0 mm 2 m/S 760 mmHg 43%
    13:00 +24°C° 0 mm 2 m/S 760 mmHg 42%
    14:00 +24°C° 0 mm 2 m/S 760 mmHg 41%
    15:00 +24°C° 0 mm 2 m/S 760 mmHg 40%
    16:00 +24°C° 0 mm 2 m/S 760 mmHg 42%
    17:00 +23°C° 0 mm 2 m/S 760 mmHg 44%
    18:00 +21°C° 0 mm 2 m/S 760 mmHg 46%
    19:00 +21°C° 0 mm 2 m/S 760 mmHg 47%
    20:00 +22°C° 0 mm 1 m/S 760 mmHg 49%
    21:00 +22°C° 0 mm 1 m/S 760 mmHg 50%
    22:00 +21°C° 0 mm 1 m/S 760 mmHg 50%
    23:00 +20°C° 0 mm 2 m/S 760 mmHg 51%

    Morgen, 20 November, Dienstag

    Zeit Temperatur Niederschläge Wind Luftdruck Luftfeuchtigkeit
    00:00 +20°C° 0 mm 2 m/S 760 mmHg 51%
    01:00 +20°C° 0 mm 2 m/S 760 mmHg 51%
    02:00 +20°C° 0 mm 2 m/S 760 mmHg 51%
    03:00 +19°C° 0 mm 3 m/S 760 mmHg 51%
    04:00 +19°C° 0 mm 3 m/S 760 mmHg 52%
    05:00 +19°C° 0 mm 3 m/S 760 mmHg 52%
    06:00 +19°C° 0 mm 3 m/S 760 mmHg 52%
    07:00 +19°C° 0 mm 3 m/S 761 mmHg 50%
    08:00 +20°C° 0 mm 3 m/S 761 mmHg 48%
    09:00 +20°C° 0 mm 3 m/S 761 mmHg 45%
    10:00 +21°C° 0 mm 3 m/S 761 mmHg 42%
    11:00 +22°C° 0 mm 3 m/S 761 mmHg 39%
    12:00 +23°C° 0 mm 4 m/S 761 mmHg 36%
    13:00 +25°C° 0 mm 4 m/S 760 mmHg 34%
    14:00 +25°C° 0 mm 4 m/S 760 mmHg 33%
    15:00 +25°C° 0 mm 4 m/S 760 mmHg 31%
    16:00 +25°C° 0 mm 3 m/S 760 mmHg 34%
    17:00 +24°C° 0 mm 3 m/S 760 mmHg 36%
    18:00 +23°C° 0 mm 2 m/S 760 mmHg 38%
    19:00 +23°C° 0 mm 2 m/S 760 mmHg 40%
    20:00 +21°C° 0 mm 2 m/S 760 mmHg 42%
    21:00 +22°C° 0 mm 1 m/S 760 mmHg 43%
    22:00 +21°C° 0 mm 1 m/S 760 mmHg 44%
    23:00 +20°C° 0 mm 2 m/S 760 mmHg 45%

    übermorgen, 21 November, Mittwoch

    Zeit Temperatur Niederschläge Wind Luftdruck Luftfeuchtigkeit
    00:00 +20°C° 0 mm 2 m/S 760 mmHg 46%
    01:00 +19°C° 0 mm 2 m/S 760 mmHg 46%
    02:00 +19°C° 0 mm 2 m/S 760 mmHg 47%
    03:00 +19°C° 0 mm 2 m/S 760 mmHg 47%
    04:00 +20°C° 0 mm 1 m/S 760 mmHg 48%
    05:00 +19°C° 0 mm 1 m/S 759 mmHg 48%
    06:00 +19°C° 0 mm 1 m/S 759 mmHg 49%
    07:00 +20°C° 0 mm 1 m/S 759 mmHg 46%
    08:00 +21°C° 0 mm 1 m/S 760 mmHg 43%
    09:00 +22°C° 0 mm 1 m/S 760 mmHg 40%
    10:00 +23°C° 0 mm 1 m/S 760 mmHg 37%
    11:00 +24°C° 0 mm 1 m/S 759 mmHg 34%
    12:00 +25°C° 0 mm 1 m/S 759 mmHg 32%
    13:00 +25°C° 0 mm 1 m/S 759 mmHg 31%
    14:00 +25°C° 0 mm 1 m/S 758 mmHg 30%
    15:00 +26°C° 0 mm 1 m/S 758 mmHg 29%
    16:00 +25°C° 0 mm 1 m/S 758 mmHg 31%
    17:00 +24°C° 0 mm 1 m/S 758 mmHg 33%
    18:00 +21°C° 0 mm 0 m/S 758 mmHg 36%
    19:00 +23°C° 0 mm 1 m/S 758 mmHg 36%
    20:00 +23°C° 0 mm 2 m/S 758 mmHg 36%
    21:00 +23°C° 0 mm 2 m/S 758 mmHg 36%
    22:00 +22°C° 0 mm 3 m/S 758 mmHg 37%
    23:00 +22°C° 0 mm 3 m/S 757 mmHg 39%

    22 November, Donnerstag

    Zeit Temperatur Niederschläge Wind Luftdruck Luftfeuchtigkeit
    00:00 +22°C° 0 mm 3 m/S 757 mmHg 40%
    01:00 +21°C° 0 mm 3 m/S 757 mmHg 42%
    02:00 +21°C° 0 mm 3 m/S 757 mmHg 44%
    03:00 +21°C° 0 mm 3 m/S 756 mmHg 46%
    04:00 +21°C° 0 mm 3 m/S 756 mmHg 47%
    05:00 +20°C° 0 mm 3 m/S 756 mmHg 47%
    06:00 +20°C° 0 mm 3 m/S 756 mmHg 48%
    07:00 +21°C° 0 mm 3 m/S 756 mmHg 47%
    08:00 +21°C° 0 mm 4 m/S 757 mmHg 45%
    09:00 +22°C° 0 mm 4 m/S 757 mmHg 44%
    10:00 +23°C° 0 mm 4 m/S 757 mmHg 41%
    11:00 +25°C° 0 mm 4 m/S 757 mmHg 38%
    12:00 +25°C° 0 mm 4 m/S 756 mmHg 35%
    13:00 +26°C° 0 mm 3 m/S 756 mmHg 34%
    14:00 +26°C° 0 mm 3 m/S 755 mmHg 34%
    15:00 +26°C° 0 mm 3 m/S 755 mmHg 34%
    16:00 +25°C° 0 mm 3 m/S 755 mmHg 36%
    17:00 +25°C° 0 mm 2 m/S 755 mmHg 38%
    18:00 +24°C° 0 mm 2 m/S 755 mmHg 40%
    19:00 +24°C° 0 mm 2 m/S 755 mmHg 41%
    20:00 +24°C° 0 mm 3 m/S 756 mmHg 43%
    21:00 +22°C° 0 mm 3 m/S 756 mmHg 44%
    22:00 +22°C° 0 mm 3 m/S 756 mmHg 45%
    23:00 +22°C° 0 mm 3 m/S 755 mmHg 45%

    23 November, Freitag

    Zeit Temperatur Niederschläge Wind Luftdruck Luftfeuchtigkeit
    00:00 +21°C° 0 mm 2 m/S 755 mmHg 46%
    01:00 +21°C° 0 mm 3 m/S 755 mmHg 46%
    02:00 +21°C° 0 mm 3 m/S 755 mmHg 46%
    03:00 +21°C° 0 mm 3 m/S 755 mmHg 47%
    04:00 +20°C° 0 mm 3 m/S 755 mmHg 49%
    05:00 +20°C° 0 mm 4 m/S 755 mmHg 52%
    06:00 +20°C° 0 mm 4 m/S 755 mmHg 55%
    07:00 +20°C° 0 mm 5 m/S 755 mmHg 58%
    08:00 +20°C° 0 mm 5 m/S 755 mmHg 61%
    09:00 +19°C° 0 mm 6 m/S 756 mmHg 64%
    10:00 +20°C° 0 mm 6 m/S 756 mmHg 63%
    11:00 +20°C° 0 mm 6 m/S 756 mmHg 63%
    12:00 +21°C° 0 mm 7 m/S 755 mmHg 62%
    13:00 +21°C° 0.1 mm 7 m/S 755 mmHg 62%
    14:00 +20°C° 0.1 mm 7 m/S 755 mmHg 63%
    15:00 +20°C° 0.1 mm 7 m/S 755 mmHg 63%
    16:00 +20°C° 0.2 mm 7 m/S 756 mmHg 64%
    17:00 +18°C° 0.2 mm 7 m/S 756 mmHg 66%
    18:00 +18°C° 0.2 mm 7 m/S 756 mmHg 67%
    19:00 +17°C° 0.1 mm 7 m/S 757 mmHg 68%
    20:00 +17°C° 0.1 mm 6 m/S 757 mmHg 70%
    21:00 +17°C° 0.1 mm 6 m/S 758 mmHg 72%
    22:00 +16°C° 0 mm 6 m/S 758 mmHg 72%
    23:00 +16°C° 0 mm 6 m/S 758 mmHg 73%

    24 November, Samstag

    Zeit Temperatur Niederschläge Wind Luftdruck Luftfeuchtigkeit
    00:00 +16°C° 0 mm 5 m/S 758 mmHg 74%
    01:00 +16°C° 0 mm 5 m/S 758 mmHg 74%
    02:00 +15°C° 0 mm 5 m/S 758 mmHg 75%
    03:00 +15°C° 0 mm 5 m/S 758 mmHg 75%
    04:00 +15°C° 0 mm 5 m/S 758 mmHg 75%
    05:00 +15°C° 0 mm 4 m/S 758 mmHg 75%
    06:00 +15°C° 0 mm 4 m/S 759 mmHg 75%
    07:00 +15°C° 0 mm 5 m/S 759 mmHg 74%
    08:00 +16°C° 0 mm 5 m/S 760 mmHg 72%
    09:00 +16°C° 0 mm 6 m/S 760 mmHg 71%
    10:00 +17°C° 0 mm 6 m/S 760 mmHg 68%
    11:00 +20°C° 0 mm 6 m/S 760 mmHg 66%
    12:00 +21°C° 0 mm 5 m/S 759 mmHg 64%
    13:00 +21°C° 0 mm 5 m/S 759 mmHg 62%
    14:00 +22°C° 0 mm 5 m/S 758 mmHg 60%
    15:00 +22°C° 0 mm 5 m/S 758 mmHg 58%
    16:00 +22°C° 0.1 mm 5 m/S 758 mmHg 60%
    17:00 +22°C° 0.1 mm 4 m/S 758 mmHg 62%
    18:00 +21°C° 0.1 mm 4 m/S 758 mmHg 64%
    19:00 +21°C° 0.5 mm 5 m/S 758 mmHg 65%
    20:00 +21°C° 0.5 mm 5 m/S 758 mmHg 67%
    21:00 +21°C° 0.5 mm 6 m/S 757 mmHg 69%
    22:00 +20°C° 1.1 mm 6 m/S 757 mmHg 69%
    23:00 +20°C° 1.1 mm 5 m/S 757 mmHg 69%
    Mehr zeigen